[[{"header":{"parameterUnit":"m.s-1","parameterCategory":1,"la1":30.2991,"la2":30.254,"lo1":-89.0895,"lo2":-89.0444,"dy":0.0017,"dx":0.0017,"nx":28,"ny":28,"refTime":"2023-10-03T03:00:00:Z","depth":0,"parameterNumber":2,"parameterNumberName":"U-component_of_WINDS"},"data":[0,0,0,0,0,0,0,0,0,0,0,0,0,0,0,0,0,0,0,0,0,0,0,0,0,0,0,0,0,0,0,0,0,0,0,0,0,0,0,0,0,0,0,0,0,0,0,0,0,0,0,0,0,0,0,0,0,0,-3.5678,-3.5677,0,-3.5641,-3.5641,-3.5641,-3.5436,-3.5431,-3.5426,-3.5422,-3.5388,-3.5392,-3.5396,0,0,0,0,0,0,0,0,0,0,0,0,0,-3.5574,-3.5577,-3.5678,-3.5677,-3.5677,-3.5642,-3.5641,-3.5641,-3.5437,-3.5431,-3.5425,-3.5419,-3.5387,-3.5392,-3.5396,0,0,0,0,0,0,0,0,0,0,0,0,0,-3.5587,-3.5578,-3.5678,-3.5571,-3.5561,-3.5642,-3.5641,-3.564,-3.5438,-3.5431,-3.5423,-3.5417,-3.5386,-3.5391,-3.5397,-3.5578,0,0,-3.5414,-3.5416,0,0,0,0,0,0,0,0,-3.5586,-3.5591,-3.5587,-3.5578,-3.5567,-3.5536,-3.5592,-3.562,-3.544,-3.5485,-3.5421,-3.5413,-3.5444,-3.5444,-3.5453,-3.5577,-3.5575,-3.5414,-3.5417,-3.542,-3.5421,0,0,0,0,0,0,0,-3.5585,-3.5591,-3.5663,-3.5587,-3.5575,-3.5526,-3.5519,-3.5596,-3.5506,-3.548,-3.5466,-3.5464,-3.5437,-3.5449,-3.5451,-3.5575,-3.5414,-3.5419,-3.5422,-3.5424,-3.5845,-3.5853,0,0,0,0,0,0,-3.5599,-3.5592,-3.5665,-3.5662,-3.5559,-3.5534,-3.5526,-3.5553,-3.5505,-3.549,-3.547,-3.5454,-3.5443,-3.5445,-3.5449,-3.5659,-3.542,-3.5425,-3.5428,-3.5838,-3.5847,-3.5856,0,0,0,0,0,0,-3.5598,-3.5608,-3.5666,-3.5623,-3.5626,-3.5543,-3.5575,-3.5557,-3.5568,-3.5497,-3.548,-3.5499,-3.5437,-3.5441,-3.5547,-3.5655,-3.5427,-3.5432,-3.5828,-3.5841,-3.5851,-3.608,0,0,0,0,0,0,-3.5596,-3.5608,-3.5676,-3.5626,-3.563,-3.5765,-3.5582,-3.5561,-3.5578,-3.5557,-3.5519,-3.5506,-3.5432,-3.554,-3.5553,-3.5658,-3.5437,-3.5818,-3.5834,-3.5848,-3.6063,-3.6098,-3.6129,0,0,0,0,0,-3.5593,-3.5743,-3.568,-3.569,-3.5712,-3.5771,-3.5774,-3.5684,-3.5587,-3.5655,-3.5609,-3.5507,-3.5641,-3.5553,-3.5565,-3.5674,-3.5811,-3.5829,-3.5847,-3.6048,-3.6091,-3.6128,0,0,0,0,0,0,-3.5809,-3.5734,-3.5664,-3.5803,-3.5795,-3.5737,-3.5819,-3.5733,-3.5753,-3.5733,-3.5622,-3.5615,-3.5738,-3.5716,-3.562,-3.5847,-3.5709,-3.573,-3.5857,-3.5898,-3.593,-3.5933,-3.5441,0,0,0,0,0,-3.5873,-3.5926,-3.5858,-3.5986,-3.5986,-3.5904,-3.5926,-3.5858,-3.5846,-3.5842,-3.5803,-3.5797,-3.5837,-3.5866,-3.5899,-3.6058,-3.6047,-3.6139,-3.6172,-3.6199,-3.6219,-3.6302,-3.6342,-3.5914,-3.5914,-3.5913,0,0,-3.6005,-3.5971,-3.6011,-3.6029,-3.6015,-3.6073,-3.5903,-3.5972,-3.6014,-3.5852,-3.595,-3.5922,-3.5907,-3.6041,-3.6098,-3.6026,-3.6335,-3.6222,-3.6244,-3.6249,-3.6324,-3.6365,-3.6401,-3.5926,-3.5924,-3.5922,0,0,-3.6276,-3.6256,-3.636,-3.6349,-3.6329,-3.6273,-3.6299,-3.6254,-3.6229,-3.6324,-3.6204,-3.6254,-3.6325,-3.6319,-3.6326,-3.6595,-3.6502,-3.6609,-3.6782,-3.6864,-3.6897,-3.6927,-3.7023,-3.7059,-3.6629,-3.6629,-3.663,0,-3.6444,-3.6526,-3.6425,-3.6502,-3.6513,-3.6368,-3.6474,-3.6468,-3.6462,-3.6473,-3.6393,-3.648,-3.6459,-3.6589,-3.6655,-3.6665,-3.6691,-3.6613,-3.69,-3.6929,-3.6955,-3.7045,-3.7082,-3.6642,-3.6641,-3.6639,-3.6638,0,-3.6733,-3.6792,-3.6879,-3.6874,-3.6895,-3.6986,-3.69,-3.6934,-3.6864,-3.6817,-3.6917,-3.6887,-3.6912,-3.6937,-3.687,-3.7059,-3.7015,-3.692,-3.6778,-3.701,-3.7094,-3.7128,-3.6661,-3.6656,-3.6652,-3.6649,0,0,-3.714,-3.7077,-3.7111,-3.7107,-3.7074,-3.7118,-3.7203,-3.7226,-3.7257,-3.7257,-3.7326,-3.739,-3.7301,-3.7309,-3.7239,-3.7311,-3.7526,-3.7206,-3.7204,-3.7268,-3.7733,-3.7805,-3.7847,-3.7464,-3.747,-3.7475,-3.7734,0,-3.74,-3.7539,-3.7451,-3.7605,-3.7659,-3.7521,-3.7595,-3.7584,-3.7542,-3.7582,-3.7536,-3.7584,-3.7463,-3.7467,-3.7531,-3.7487,-3.7619,-3.7467,-3.7528,-3.7532,-3.7537,-3.789,-3.7967,-3.8212,-3.7766,-3.7771,-3.7775,0,-3.7721,-3.7734,-3.7894,-3.7849,-3.7868,-3.7936,-3.795,-3.7989,-3.7974,-3.7939,-3.7948,-3.786,-3.7941,-3.7801,-3.7912,-3.7811,-3.783,-3.7812,-3.782,-3.7822,-3.7668,-3.7903,-3.8288,-3.8326,-3.7826,-3.7822,-3.7818,0,-3.8003,-3.806,-3.8162,-3.8163,-3.8114,-3.8165,-3.8148,-3.8124,-3.8144,-3.8156,-3.8167,-3.819,-3.8203,-3.8223,-3.8144,-3.8049,-3.8265,-3.8119,-3.8239,-3.8242,-3.8291,-3.829,-3.8686,-3.8304,-3.8304,-3.8303,-3.8302,0,-3.8302,-3.8405,-3.8287,-3.8351,-3.8462,-3.836,-3.8474,-3.8442,-3.8422,-3.8478,-3.8361,-3.8415,-3.8307,-3.8352,-3.8291,-3.8392,-3.8399,-3.8373,-3.8356,-3.8384,-3.8388,-3.8396,-3.8377,-3.8313,-3.8311,-3.8309,-3.8307,0,-3.8636,-3.8561,-3.8663,-3.8609,-3.8597,-3.8682,-3.8635,-3.8692,-3.8642,-3.8714,-3.8725,-3.8648,-3.8694,-3.8617,-3.8654,-3.8613,-3.8754,-3.871,-3.8759,-3.8746,-3.8871,-3.8861,-3.9288,-3.9339,-3.8925,-3.8929,-3.8932,0,-3.8832,-3.8908,-3.8861,-3.8888,-3.8877,-3.8924,-3.8942,-3.8845,-3.8869,-3.8857,-3.8916,-3.8952,-3.8975,-3.9055,-3.9003,-3.9031,-3.8987,-3.9135,-3.8991,-3.9017,-3.899,-3.8987,-3.8994,-3.9165,-3.917,-3.9174,-3.9177,0,-3.9188,-3.9147,-3.9177,-3.9196,-3.9221,-3.9231,-3.9232,-3.9262,-3.9159,-3.9193,-3.9237,-3.9256,-3.9293,-3.933,-3.9345,-3.9328,-3.9237,-3.9223,-3.9252,-3.9282,-3.9307,-3.9296,-3.884,-3.9214,-3.921,-3.9207,-3.9205,-3.9204,-3.9459,-3.9519,-3.9496,-3.9534,-3.9524,-3.9528,-3.9579,-3.9535,-3.957,-3.9591,-3.9532,-3.9591,-3.9574,-3.9584,-3.9577,-3.9623,-3.9557,-3.96,-3.9611,-3.9623,-3.9643,-3.93,-3.9625,-3.9624,-3.9623,-3.9622,-3.9621,0,-3.9809,-3.9786,-3.9822,-3.9827,-3.9858,-3.9767,-3.9764,-3.9796,-3.9849,-3.9839,-3.9864,-3.9916,-3.9952,-3.9903,-3.993,-3.9976,-3.9935,-3.9987,-3.9983,-3.9981,-3.97,-3.9672,-4.002,-4.002,-4.002,-4.002,-4.002,-4.0019,-3.9994,-4.0092,-4.0049,-4.0141,-4.0118,-4.0174,-4.018,-4.0184,-4.0175,-4.0238,-4.0267,-4.0234,-4.0209,-4.0233,-4.0263,-4.0247,-4.0263,-4.033,-4.0301,-4.0039,-4.0,-3.9963,-3.9936,-4.0334,-4.0335,-4.0577,-4.058,-4.0581]},{"header":{"parameterUnit":"m.s-1","parameterCategory":1,"la1":30.2991,"la2":30.254,"lo1":-89.0895,"lo2":-89.0444,"dy":0.0017,"dx":0.0017,"nx":28,"ny":28,"refTime":"2023-10-03T03:00:00:Z","depth":0,"parameterNumber":3,"parameterNumberName":"V-component_of_WINDS"},"data":[0,0,0,0,0,0,0,0,0,0,0,0,0,0,0,0,0,0,0,0,0,0,0,0,0,0,0,0,0,0,0,0,0,0,0,0,0,0,0,0,0,0,0,0,0,0,0,0,0,0,0,0,0,0,0,0,0,0,-0.9897,-0.9898,0,-1.0024,-1.0025,-1.0026,-1.0137,-1.0138,-1.014,-1.0141,-1.0266,-1.0268,-1.027,0,0,0,0,0,0,0,0,0,0,0,0,0,-0.9747,-0.9749,-0.9897,-0.9899,-0.99,-1.0023,-1.0025,-1.0027,-1.0137,-1.0138,-1.014,-1.0141,-1.0265,-1.0268,-1.0271,0,0,0,0,0,0,0,0,0,0,0,0,0,-0.9836,-0.975,-0.9897,-0.997,-0.9978,-1.0023,-1.0025,-1.0027,-1.0137,-1.0138,-1.014,-1.0142,-1.0265,-1.0268,-1.0271,-1.0252,0,0,-1.0281,-1.0282,0,0,0,0,0,0,0,0,-0.9831,-0.9842,-0.9958,-0.9965,-0.9974,-1.0067,-1.0018,-1.0102,-1.0136,-1.0076,-1.0141,-1.0143,-1.0198,-1.0207,-1.0226,-1.0258,-1.0264,-1.0281,-1.0283,-1.0284,-1.0285,0,0,0,0,0,0,0,-0.9825,-0.9837,-0.9947,-0.9959,-0.9969,-0.9995,-1.001,-1.0035,-1.0124,-1.0082,-1.009,-1.0104,-1.0203,-1.0223,-1.023,-1.0265,-1.0281,-1.0284,-1.0286,-1.0287,-1.0287,-1.0285,0,0,0,0,0,0,-0.9808,-0.9831,-0.9943,-0.9951,-0.9906,-0.9996,-1.0013,-1.0035,-1.0125,-1.014,-1.0102,-1.0108,-1.0216,-1.0226,-1.0235,-1.0217,-1.0284,-1.0287,-1.0289,-1.0289,-1.0286,-1.0284,0,0,0,0,0,0,-0.9804,-0.9817,-0.9938,-0.9893,-0.9911,-0.9997,-1.002,-1.0036,-1.0057,-1.014,-1.0156,-1.0106,-1.0218,-1.023,-1.0247,-1.0223,-1.0289,-1.0292,-1.0291,-1.0288,-1.0285,-1.0183,0,0,0,0,0,0,-0.9799,-0.9815,-0.981,-0.9892,-0.9913,-0.9949,-1.0019,-1.0037,-1.0062,-1.0072,-1.0148,-1.0163,-1.0221,-1.0242,-1.025,-1.0229,-1.0294,-1.0293,-1.029,-1.0286,-1.0189,-1.0177,-1.0167,0,0,0,0,0,-0.9794,-0.9775,-0.9809,-0.9822,-0.9908,-0.9947,-0.9959,-1.0027,-1.006,-1.0054,-1.0108,-1.016,-1.0225,-1.0242,-1.0253,-1.0232,-1.0295,-1.0291,-1.0286,-1.0194,-1.0179,-1.0167,0,0,0,0,0,0,-0.9686,-0.9787,-0.9826,-0.9834,-0.9881,-0.9966,-0.9961,-1.001,-1.0048,-1.0055,-1.0137,-1.0153,-1.016,-1.0199,-1.0216,-1.0218,-1.0267,-1.0264,-1.0193,-1.018,-1.0169,-1.0158,-1.0297,0,0,0,0,0,-0.9664,-0.9688,-0.9775,-0.9774,-0.9796,-0.9874,-0.9894,-0.9942,-0.9994,-1.0015,-1.007,-1.0117,-1.0148,-1.0166,-1.02,-1.0196,-1.0212,-1.0186,-1.0175,-1.0166,-1.0162,-1.0161,-1.015,-1.027,-1.027,-1.027,0,0,-0.9617,-0.9675,-0.9686,-0.9754,-0.9796,-0.9818,-0.989,-0.9911,-0.9928,-1.0017,-1.0036,-1.0078,-1.0136,-1.0142,-1.0147,-1.0174,-1.0133,-1.016,-1.0152,-1.0154,-1.0155,-1.0144,-1.0133,-1.0267,-1.0267,-1.0268,0,0,-0.9542,-0.959,-0.9593,-0.9635,-0.9698,-0.9751,-0.9751,-0.9829,-0.986,-0.9881,-0.9949,-0.9969,-1.0021,-1.0059,-1.0085,-1.0025,-1.0073,-1.0034,-0.9975,-0.9973,-0.9963,-0.9955,-0.9932,-0.9922,-1.003,-1.003,-1.003,0,-0.9475,-0.9513,-0.9588,-0.9605,-0.9632,-0.9716,-0.9719,-0.9755,-0.9825,-0.9841,-0.9871,-0.9937,-0.9982,-0.9997,-0.9982,-1.0002,-1.0003,-1.0024,-0.9959,-0.9952,-0.9945,-0.9923,-0.9914,-1.0024,-1.0025,-1.0025,-1.0026,0,-0.9427,-0.9451,-0.9446,-0.9513,-0.954,-0.955,-0.9625,-0.9643,-0.9689,-0.9737,-0.9756,-0.9814,-0.9859,-0.9867,-0.9912,-0.9888,-0.9902,-0.9944,-0.9994,-0.9927,-0.9908,-0.99,-1.0016,-1.0018,-1.002,-1.0021,0,0,-0.9287,-0.9396,-0.9392,-0.9423,-0.95,-0.952,-0.9532,-0.9578,-0.9591,-0.9637,-0.9648,-0.969,-0.9729,-0.9759,-0.9809,-0.9807,-0.9753,-0.985,-0.9852,-0.9827,-0.9727,-0.9693,-0.9683,-0.9787,-0.9785,-0.9784,-0.9722,0,-0.9223,-0.9252,-0.932,-0.9327,-0.935,-0.9429,-0.944,-0.9487,-0.9533,-0.9558,-0.9608,-0.9636,-0.9687,-0.9705,-0.9707,-0.9759,-0.9733,-0.9765,-0.9795,-0.9796,-0.9776,-0.9673,-0.9638,-0.9576,-0.9715,-0.9714,-0.9713,0,-0.9153,-0.9194,-0.9203,-0.9278,-0.929,-0.9298,-0.9345,-0.9369,-0.9423,-0.9456,-0.9489,-0.9545,-0.9561,-0.9608,-0.963,-0.965,-0.9667,-0.9694,-0.9694,-0.9697,-0.9748,-0.9671,-0.9558,-0.9547,-0.9702,-0.9703,-0.9704,0,-0.9047,-0.9106,-0.9118,-0.9143,-0.923,-0.9234,-0.927,-0.9327,-0.935,-0.939,-0.9405,-0.9447,-0.9469,-0.9499,-0.9563,-0.9593,-0.9577,-0.9631,-0.9603,-0.9601,-0.9594,-0.9593,-0.9479,-0.9609,-0.9609,-0.9609,-0.9609,0,-0.8968,-0.8969,-0.9072,-0.9079,-0.9083,-0.9161,-0.9162,-0.9206,-0.9256,-0.9272,-0.9344,-0.9357,-0.9443,-0.9465,-0.9516,-0.9525,-0.9535,-0.9561,-0.9574,-0.9553,-0.9549,-0.9563,-0.9568,-0.9606,-0.9607,-0.9607,-0.9608,0,-0.885,-0.8919,-0.8937,-0.9019,-0.9039,-0.9038,-0.9107,-0.9117,-0.9167,-0.9186,-0.9195,-0.9273,-0.9304,-0.9372,-0.942,-0.9455,-0.945,-0.9475,-0.9431,-0.9439,-0.9407,-0.9408,-0.9295,-0.9284,-0.9422,-0.9421,-0.942,0,-0.8793,-0.8797,-0.8879,-0.8895,-0.8929,-0.8955,-0.8978,-0.9055,-0.9076,-0.9138,-0.9139,-0.9176,-0.9209,-0.9253,-0.9313,-0.935,-0.9375,-0.9333,-0.9381,-0.9359,-0.9372,-0.937,-0.9369,-0.9322,-0.932,-0.9318,-0.9317,0,-0.8685,-0.8719,-0.8751,-0.8795,-0.8821,-0.8859,-0.89,-0.8909,-0.8995,-0.9015,-0.9048,-0.9073,-0.9123,-0.9157,-0.9203,-0.9239,-0.9291,-0.9302,-0.9297,-0.9275,-0.9248,-0.926,-0.94,-0.9304,-0.9305,-0.9306,-0.9307,-0.9307,-0.8595,-0.8601,-0.8659,-0.8692,-0.8732,-0.8769,-0.8781,-0.8833,-0.8862,-0.8909,-0.8952,-0.8979,-0.9033,-0.91,-0.9133,-0.9154,-0.9181,-0.9174,-0.9172,-0.9169,-0.9159,-0.9247,-0.9163,-0.9164,-0.9164,-0.9165,-0.9165,0,-0.8489,-0.853,-0.856,-0.8616,-0.8641,-0.869,-0.8738,-0.8755,-0.8779,-0.8825,-0.8856,-0.8892,-0.8926,-0.8989,-0.9027,-0.9032,-0.9057,-0.9039,-0.9038,-0.9045,-0.9134,-0.9133,-0.9019,-0.9019,-0.9019,-0.9019,-0.9019,-0.9019,-0.8436,-0.8449,-0.8489,-0.8521,-0.8563,-0.8591,-0.8614,-0.8647,-0.8684,-0.8722,-0.875,-0.8792,-0.8844,-0.8887,-0.8919,-0.8936,-0.8946,-0.892,-0.8945,-0.9026,-0.9039,-0.9052,-0.9052,-0.8922,-0.8922,-0.8854,-0.8853,-0.8853]}]]